Voltar ao catálogo

FENGYUN 1C DEB

LostSSO
NORAD 32219·DEBRIS·🇨🇳 China

Lançado May 10, 1999 de Taiyuan Satellite Launch Center

Loading…

Próximas Passagens (próximas 24 horas)

TLE

ObsoletoSource: Space-Track

Época: Oct 18, 2010, 06:18 UTC

1 32219U 99025CVR 10291.26267109  .00000828  00000-0  38835-3 0  9996
2 32219  98.8394 293.4115 0086757 273.6268  90.0703 14.20944452167235

Acompanhe FENGYUN 1C DEB em tempo real com AllMySat

Download on the App Store